Regional Weather Roundup
Issued by NWS

Home | Current Version | Previous Version | Text Only | Print | Product List | Glossary Off
Versions: 1 2 3 4 5 6 7 8 9 10 11 12 13 14 15 16 17 18 19 20 21 22 23 24 25 26 27 28 29 30 31 32 33 34 35 36 37 38 39 40 41 42 43 44 45 46 47 48 49 50

000
ASUS44 KMEG 040710
RWRTN
TENNESSEE HOURLY STATE WEATHER ROUNDUP
NATIONAL WEATHER SERVICE MEMPHIS TN
200 AM CDT TUE AUG 04 2015

TNZ002-004-019-021-049-052-054-088>092-040800-
WEST TENNESSEE

CITY           SKY/WX    TMP DP  RH WIND       PRES   REMARKS
MEMPHIS INTL   MOCLDY    80  70  71 CALM      29.93F
NWS MEMPHIS      N/A     75 N/A N/A MISG        N/A
JACKSON        PTCLDY    73  70  90 CALM      29.94S FOG
DYERSBURG        N/A    N/A N/A N/A MISG        N/A
PARIS          CLEAR     70  66  88 CALM      29.95S
LEXINGTON      CLEAR     72  72 100 CALM      29.94S
$$

TNZ008-025-027-028-033-062-065-066-040800-
NORTH MIDDLE TENNESSEE

CITY           SKY/WX    TMP DP  RH WIND       PRES   REMARKS
NASHVILLE      CLEAR     76  70  82 CALM      29.96S
CLARKSVILLE    CLEAR     72  69  90 CALM      29.94S
SMYRNA         CLEAR     73  71  93 CALM      29.96S
CROSSVILLE     CLEAR     69  66  90 CALM      30.04S
$$

TNZ061-075-076-078-094-096-097-040800-
SOUTH MIDDLE TENNESSEE

CITY           SKY/WX    TMP DP  RH WIND       PRES   REMARKS
FAYETTEVILLE   CLEAR     72  68  88 CALM      29.98S
TULLAHOMA      CLEAR     70  66  88 CALM      30.00S
WINCHESTER     CLEAR     70  66  88 CALM      29.99S
MCMINNVILLE    MOCLDY    70  70 100 CALM      29.99S VSB 1/4
COLUMBIA       CLEAR     73  73 100 CALM      29.95S
SHELBYVILLE    CLEAR     72  72 100 E3        29.98S
$$

TNZ017-018-042-046-047-040800-
NORTHEAST TENNESSEE

CITY           SKY/WX    TMP DP  RH WIND       PRES   REMARKS
TRI CITIES     PTCLDY    64  61  90 CALM      30.01F
ELIZABETHTON   SUNNY     63  57  82 CALM      30.03F
$$

TNZ012-013-036-069-073-074-040800-
CENTRAL EAST TENNESSEE

CITY           SKY/WX    TMP DP  RH WIND       PRES   REMARKS
KNOXVILLE      CLEAR     73  64  73 CALM      29.98S
OAK RIDGE      CLEAR     72  68  87 CALM      29.99S
GATLINBURG     SUNNY     66  59  77 CALM      29.99S
MORRISTOWN     SUNNY     70  63  78 CALM      30.00F
$$

TNZ083-085-099-040800-
SOUTHEAST TENNESSEE

CITY           SKY/WX    TMP DP  RH WIND       PRES   REMARKS
CHATTANOOGA    CLEAR     74  66  76 CALM      29.97S
$$

SKY/WX REPORTED AS FAIR MEANS FEW OR NO CLOUDS BELOW
12 THOUSAND FEET.



USA.gov is the U.S. government's official web portal to all federal, state and local government web resources and services.